Weather in Kryzhopil

Ukraine / Vinnytsia Region     48˚22′52″N   28˚52′03″E
temp.,
°C
wind,
m/s
gust,
m/s
humid.,
%
clouds,
%
prec.,
mm/h
press.,
hPa
HPBL,
m
1 december, tue
tue123:00−3˚n368567 0.0 1028184
02:00−3˚n368873 0.0 1027228
05:00−3˚n47888 0.0 1027273
08:00−3˚nne59884 0.0 1027327
11:00−1˚nne587440 0.0 1027481
14:00nne587466 0.0 1026531
17:00−1˚nne599279 0.0 1026397
20:00−1˚ne589487 0.1 1026352
2 december, wed
wed223:00−1˚nne369598 0.1 1026261
02:00nne359899 0.3 1027199
05:00ne2499100 0.5 1026220
08:00ene3498100 0.8 1026250
11:00e2394100 0.1 1026244
14:00ne1296100 0.2 1025138
17:00ene2398100 0.1 1025146
20:00e2298100 0.1 1025115
3 december, thu
thu323:00−1˚ene119996 0.1 102528
02:00ssw119896 0.3 102573
05:00−1˚se119692 0.0 102424
08:00sse129391 0.1 1024107
11:00+1˚sse368594 0.0 1023474
14:00+1˚sse468090 0.0 1023634
17:00+1˚se488680 0.0 1022407
20:00+2˚se5109390 0.0 1022402
4 december, fri
fri423:00+3˚se71294100 0.0 1020455
02:00+4˚se71588100 0.1 1019478
05:00+3˚se7138985 0.0 1018442
08:00+2˚se7168565 0.0 1019463
11:00+5˚se9157453 0.0 1018654
14:00+6˚se8137352 0.0 1017644
17:00+4˚se7148591 0.0 1017501
20:00+4˚se8159389 0.0 1018525
5 december, sat
sat523:00+4˚se81394100 0.0 1018598
02:00+5˚se71393100 0.0 1017525
05:00+4˚se81596100 0.1 1017475
08:00+5˚se71396100 2.6 1017532
11:00+6˚se81293100 0.0 1018471
14:00+6˚se81388100 0.0 1018554
17:00+6˚se81487100 0.0 1018551
20:00+5˚se91786100 0.0 1019488